Waarnemingen

Advertentie
Mijn weer
Aachen-Orsbach, Duitsland (10505): temperatuur & dauwpunt: 09.11.2018 20:00:00 - 15.11.2018 20:00:00 (CET)Aachen-Orsbach, Duitsland (10505): temperatuur 5cm & temperatuur -5cm: 09.11.2018 20:00:00 - 15.11.2018 20:00:00 (CET)Aachen-Orsbach, Duitsland (10505): temperatuur -20cm & temperatuur -100cm: 09.11.2018 20:00:00 - 15.11.2018 20:00:00 (CET)Aachen-Orsbach, Duitsland (10505): windsnelheid & windstoten: 09.11.2018 20:00:00 - 15.11.2018 20:00:00 (CET)Aachen-Orsbach, Duitsland (10505): windrichting: 09.11.2018 20:00:00 - 15.11.2018 20:00:00 (CET)Aachen-Orsbach, Duitsland (10505): luchtdruk: 09.11.2018 20:00:00 - 15.11.2018 20:00:00 (CET)Aachen-Orsbach, Duitsland (10505): zicht: 09.11.2018 20:00:00 - 15.11.2018 20:00:00 (CET)Aachen-Orsbach, Duitsland (10505): Zonneschijnduur: 09.11.2018 20:00:00 - 15.11.2018 20:00:00 (CET)Aachen-Orsbach, Duitsland (10505): neerslag: 09.11.2018 20:00:00 - 15.11.2018 20:00:00 (CET)
Datum & Tijd tt [°C] td [°C] tt 5cm [°C] tt -5cm [°C] tt -20cm [°C] tt -100cm [°C] ff [km/u] ff [kn] fx [km/u] fx [kn] dd ppp [hPa] vv [km] sd [min] rr [mm]
15.11.2018 20:00:00 4,2 3,3 0,9 5,1 8,4 11,6 9 5 13 7 O 1025,2 14 0 0,0
15.11.2018 19:00:00 4,4 3,3 1,8 6,0 8,5 11,6 10 5 14 8 O 1025,1 19 0 0,0
15.11.2018 18:00:00 4,7 3,5 2,7 7,2 8,5 11,6 13 7 14 8 O 1024,7 23 0 0,0
15.11.2018 17:00:00 6,8 4,7 4,5 8,9 8,3 11,6 11 6 14 8 ONO 1024,6 30 29 0,0
15.11.2018 16:00:00 9,8 6,0 10,5 10,4 8,0 11,6 10 6 13 7 ONO 1024,5 31 60 0,0
15.11.2018 15:00:00 11,1 6,8 14,2 11,3 7,7 11,6 8 4 14 8 O 1024,2 56 60 0,0
15.11.2018 14:00:00 11,5 6,4 13,8 11,3 7,4 11,6 11 6 14 7 ONO 1024,4 46 60 0,0
15.11.2018 13:00:00 11,6 6,2 14,1 10,4 7,1 11,6 9 5 11 6 O 1024,6 44 60 0,0
15.11.2018 12:00:00 9,8 5,1 11,9 8,8 7,0 11,6 9 5 12 6 O 1025,3 62 60 0,0
15.11.2018 11:00:00 8,0 4,3 8,4 6,8 6,9 11,6 11 6 15 8 O 1025,7 17 60 0,0
15.11.2018 10:00:00 7,3 3,8 6,7 4,8 7,0 11,6 11 6 17 9 OZO 1025,7 10 60 0,0
15.11.2018 09:00:00 4,5 2,2 3,3 3,3 7,1 11,6 16 8 17 9 O 1025,9 14 31 0,0
15.11.2018 08:00:00 5,1 3,1 1,0 3,1 7,3 11,6 10 5 11 6 OZO 1025,5 33 0 0,0
15.11.2018 07:00:00 5,6 2,6 1,0 3,3 7,4 11,6 9 5 16 9 ZO 1025,3 26 0 0,0
15.11.2018 06:00:00 5,7 2,4 1,9 3,3 7,6 11,6 10 5 13 7 OZO 1025,3 19 0 0,0
15.11.2018 05:00:00 5,6 2,4 2,0 3,3 7,7 11,6 10 5 12 7 OZO 1025,3 16 0 0,0
15.11.2018 04:00:00 3,1 1,7 0,6 3,5 7,9 11,6 9 5 12 6 OZO 1025,8 17 0 0,0
15.11.2018 03:00:00 3,5 1,9 0,5 3,6 8,1 11,6 8 4 11 6 O 1026,0 14 0 0,0
15.11.2018 02:00:00 4,0 2,4 1,5 3,8 8,3 11,6 9 5 14 8 OZO 1026,0 9 0 0,0
15.11.2018 01:00:00 5,4 3,0 1,4 4,0 8,5 11,6 8 5 10 6 O 1026,0 14 0 0,0
15.11.2018 00:00:00 4,9 3,0 1,4 4,3 8,8 11,6 9 5 12 6 OZO 1025,8 10 0 0,0
14.11.2018 23:00:00 5,8 3,5 1,8 4,7 9,0 11,6 11 6 13 7 O 1025,8 12 0 0,0
14.11.2018 22:00:00 6,7 3,4 1,9 5,2 9,2 11,6 11 6 15 8 Z 1025,8 69 0 0,0
14.11.2018 21:00:00 5,9 3,6 1,3 5,8 9,4 11,6 9 5 14 8 OZO 1026,0 39 0 0,0
14.11.2018 20:00:00 6,9 3,7 2,0 6,6 9,5 11,6 9 5 15 8 ZO 1026,5 60 0 0,0
14.11.2018 19:00:00 8,6 4,4 4,2 7,5 9,6 11,6 11 6 16 9 ZO 1026,5 70 0 0,0
14.11.2018 18:00:00 8,6 5,5 3,6 8,8 9,6 11,6 6 3 7 4 OZO 1026,6 47 0 0,0
14.11.2018 17:00:00 10,8 7,4 5,6 10,7 9,4 11,6 4 2 10 5 ONO 1026,7 44 29 0,0
14.11.2018 16:00:00 11,9 6,5 11,5 12,1 9,2 11,6 6 4 12 6 ZZW 1026,9 74 60 0,0
14.11.2018 15:00:00 13,0 4,7 14,4 12,9 8,9 11,6 6 3 10 5 ZZW 1027,1 65 60 0,0
14.11.2018 14:00:00 12,4 5,9 15,1 12,5 8,6 11,6 7 4 16 8 ZZO 1027,3 55 60 0,0
14.11.2018 13:00:00 11,8 5,3 13,2 11,7 8,4 11,6 11 6 16 9 Z 1027,8 55 60 0,0
14.11.2018 12:00:00 11,5 6,5 12,2 10,1 8,2 11,6 9 5 22 12 Z 1028,4 49 60 0,0
14.11.2018 11:00:00 9,7 6,0 10,0 8,4 8,2 11,6 14 8 21 11 Z 1028,8 75 60 0,0
14.11.2018 10:00:00 8,3 5,1 7,9 6,7 8,3 11,6 8 4 15 8 ZZW 1029,0 56 60 0,0
14.11.2018 09:00:00 7,2 4,6 5,7 5,3 8,4 11,6 11 6 20 11 Z 1029,1 54 34 0,0
14.11.2018 08:00:00 5,5 3,8 3,5 5,2 8,5 11,6 16 8 19 10 ZZO 1028,7 53 0 0,0
14.11.2018 07:00:00 6,1 4,6 3,7 5,7 8,6 11,6 14 7 23 12 Z 1028,8 41 0 0,0
14.11.2018 06:00:00 7,4 5,5 5,9 5,9 8,7 11,6 18 10 22 12 Z 1028,7 41 0 0,0
14.11.2018 05:00:00 7,6 5,6 6,0 6,1 8,8 11,6 14 7 24 13 ZZW 1029,4 39 0 0,0
14.11.2018 04:00:00 8,1 6,1 6,8 6,4 8,9 11,6 18 10 26 14 ZZW 1029,7 42 0 0,0
14.11.2018 03:00:00 8,0 5,9 6,5 6,5 9,0 11,6 18 10 26 14 ZZW 1030,0 44 0 0,0
14.11.2018 02:00:00 7,8 5,7 6,4 6,6 9,2 11,6 16 9 24 13 ZZW 1030,1 41 0 0,0
14.11.2018 01:00:00 8,0 5,8 6,9 6,7 9,3 11,6 16 9 24 13 ZZW 1030,2 39 0 0,0
14.11.2018 00:00:00 8,0 5,9 6,7 6,9 9,4 11,6 18 10 27 14 ZZW 1030,0 38 0 0,0
13.11.2018 23:00:00 8,1 6,1 7,0 7,1 9,5 11,6 19 11 29 16 ZW 1029,8 41 0 0,0
13.11.2018 22:00:00 8,2 6,1 6,9 7,3 9,6 11,6 18 10 27 15 ZW 1029,6 42 0 0,0
13.11.2018 21:00:00 8,6 5,9 7,4 7,5 9,8 11,6 20 11 29 16 ZW 1029,3 38 0 0,0
13.11.2018 20:00:00 9,0 6,0 7,8 7,8 9,9 11,6 20 11 29 16 ZW 1029,0 48 0 0,0
13.11.2018 19:00:00 9,0 5,9 7,7 8,2 9,9 11,6 19 10 26 14 ZW 1028,4 43 0 0,0
13.11.2018 18:00:00 9,3 5,8 8,0 8,9 10,0 11,6 16 9 26 14 ZW 1028,1 44 0 0,0
13.11.2018 17:00:00 10,1 5,7 9,0 9,6 9,9 11,6 16 8 36 19 WZW 1027,3 55 1 0,0
13.11.2018 16:00:00 11,1 5,6 10,5 10,2 9,9 11,6 26 14 43 23 WZW 1026,3 57 25 0,0
13.11.2018 15:00:00 11,3 6,1 11,1 10,8 9,8 11,6 23 13 45 24 WZW 1025,5 68 9 0,0
13.11.2018 14:00:00 11,6 6,5 12,4 10,8 9,7 11,6 29 15 53 28 WZW 1025,0 60 39 0,0
13.11.2018 13:00:00 11,1 6,1 11,1 10,4 9,6 11,6 30 16 49 26 ZW 1024,3 40 7 0,0
13.11.2018 12:00:00 11,2 6,4 11,6 10,1 9,5 11,6 32 17 59 32 WZW 1024,2 49 39 0,0
13.11.2018 11:00:00 10,5 6,5 10,0 9,4 9,5 11,6 29 16 50 27 WZW 1023,8 47 25 0,0
13.11.2018 10:00:00 9,8 7,2 9,2 8,7 9,6 11,6 23 12 40 22 ZW 1022,9 37 16 0,0
13.11.2018 09:00:00 9,7 7,2 9,3 8,4 9,6 11,6 29 16 46 25 ZW 1022,5 40 0 0,0
13.11.2018 08:00:00 9,5 7,1 9,2 8,0 9,7 11,6 26 14 48 26 ZW 1021,8 40 0 0,0
13.11.2018 07:00:00 9,5 6,6 8,5 8,2 9,7 11,6 28 15 41 22 ZZW 1020,8 56 0 0,0
13.11.2018 06:00:00 9,6 6,2 8,8 8,4 9,8 11,6 23 12 34 19 ZZW 1020,4 56 0 0,0
13.11.2018 05:00:00 9,6 6,5 9,0 8,5 9,9 11,6 24 13 38 20 ZZW 1020,0 52 0 0,0
13.11.2018 04:00:00 9,5 6,6 8,9 8,5 9,9 11,6 25 13 34 18 ZZW 1019,7 48 0 0,0
13.11.2018 03:00:00 9,3 6,8 8,7 8,5 10,0 11,6 20 11 29 16 ZZW 1019,7 67 0 0,0
13.11.2018 02:00:00 9,3 7,0 8,5 8,7 10,1 11,6 13 7 27 14 Z 1019,3 69 0 0,0
13.11.2018 01:00:00 9,3 7,1 8,8 8,8 10,2 11,6 19 10 28 15 ZZW 1019,4 75 0 0,0
13.11.2018 00:00:00 9,5 7,4 8,9 8,9 10,3 11,6 18 10 25 14 ZZW 1019,5 69 0 0,0
12.11.2018 23:00:00 9,3 7,5 8,8 9,1 10,3 11,6 17 9 24 13 ZZW 1019,1 54 0 0,0
12.11.2018 22:00:00 9,0 7,9 8,4 9,3 10,4 11,6 9 5 16 9 ZZW 1018,6 29 0 0,0
12.11.2018 21:00:00 9,4 8,0 8,8 9,6 10,5 11,6 12 6 21 11 WZW 1018,7 30 0 0,0
12.11.2018 20:00:00 9,4 8,2 8,6 9,9 10,5 11,6 11 6 19 10 WZW 1018,0 16 0 0,0
12.11.2018 19:00:00 9,9 8,9 9,5 10,3 10,5 11,6 11 6 24 13 WZW 1017,5 11 0 0,1
12.11.2018 18:00:00 10,2 9,1 10,1 10,5 10,6 11,6 13 7 26 14 WZW 1016,4 14 0 0,0
12.11.2018 17:00:00 10,2 9,3 10,1 10,8 10,6 11,6 16 8 21 11 W 1015,4 22 0 0,0
12.11.2018 16:00:00 10,2 9,4 10,2 11,1 10,5 11,6 15 8 21 12 W 1014,6 27 0 0,0
12.11.2018 15:00:00 10,1 9,5 10,2 11,2 10,5 11,6 8 4 29 16 ZW 1013,9 21 0 0,0
12.11.2018 14:00:00 10,2 9,3 10,2 11,9 10,3 11,6 22 12 32 17 WNW 1013,8 13 0 0,0
12.11.2018 13:00:00 11,9 10,5 12,4 12,6 10,1 11,6 14 8 19 10 W 1012,3 15 2 0,0
12.11.2018 12:00:00 11,7 10,5 12,3 12,8 10,0 11,6 9 5 16 8 W 1012,0 22 18 0,0
12.11.2018 11:00:00 12,2 10,6 12,9 12,1 9,8 11,6 7 4 11 6 W 1011,7 47 22 0,0
12.11.2018 10:00:00 11,5 10,2 13,3 10,5 9,8 11,6 9 5 14 8 O 1011,2 43 27 0,0
12.11.2018 09:00:00 10,2 9,6 9,9 9,7 9,8 11,6 11 6 18 10 O 1011,4 44 0 0,0
12.11.2018 08:00:00 10,0 9,5 9,8 9,6 9,8 11,6 13 7 16 9 O 1011,7 46 0 0,4
12.11.2018 07:00:00 10,2 9,2 9,6 9,5 9,8 11,6 6 3 22 12 ZZO 1012,2 51 0 0,3
12.11.2018 06:00:00 10,3 9,1 9,7 9,5 9,8 11,6 14 7 27 14 ZO 1012,0 37 0 0,8
12.11.2018 05:00:00 10,5 8,8 9,7 9,5 9,8 11,6 21 12 32 17 Z 1012,2 60 0 0,5
12.11.2018 04:00:00 11,0 8,7 9,7 9,4 9,8 11,6 23 12 34 18 Z 1012,7 15 0 0,4
12.11.2018 03:00:00 10,7 8,5 9,5 9,3 9,8 11,6 10 5 28 15 Z 1012,4 66 0 0,4
12.11.2018 02:00:00 10,9 8,2 9,9 9,3 9,9 11,6 18 10 28 15 Z 1012,5 36 0 0,0
12.11.2018 01:00:00 10,3 8,0 9,6 9,2 9,9 11,6 12 6 29 15 Z 1012,5 69 0 0,0
12.11.2018 00:00:00 10,4 7,8 9,6 9,3 9,9 11,6 18 10 29 16 Z 1012,3 75 0 0,0
11.11.2018 23:00:00 10,5 7,9 10,0 9,3 10,0 11,6 19 11 32 17 ZZW 1012,0 75 0 0,0
11.11.2018 22:00:00 10,5 7,6 9,8 9,4 10,0 11,6 22 12 33 18 ZZW 1011,5 75 0 1,2
11.11.2018 21:00:00 10,5 7,5 9,1 9,5 10,0 11,6 24 13 36 20 ZZW 1010,7 18 0 1,0
11.11.2018 20:00:00 11,4 7,0 10,3 9,7 10,0 11,6 28 15 47 25 ZW 1010,1 67 0 0,1
11.11.2018 19:00:00 11,6 7,5 10,1 9,9 10,0 11,6 32 18 54 29 ZZW 1008,5 43 0 0,0
11.11.2018 18:00:00 11,4 8,5 10,8 10,0 10,0 11,6 22 12 39 21 Z 1008,5 60 0 0,0
11.11.2018 17:00:00 11,6 8,4 11,0 10,1 10,0 11,6 26 14 45 25 ZZW 1008,4 75 0 0,0
11.11.2018 16:00:00 11,2 8,7 10,7 10,3 10,0 11,6 23 13 40 21 ZZW 1007,9 37 0 0,0
11.11.2018 15:00:00 10,9 8,7 9,9 10,4 9,9 11,6 30 16 51 27 ZZW 1007,9 26 0 1,4
11.11.2018 14:00:00 11,9 8,5 10,6 10,7 9,9 11,6 25 14 48 26 ZZW 1007,7 21 0 0,6
11.11.2018 13:00:00 12,9 7,9 12,4 11,0 9,8 11,6 31 17 55 30 ZZW 1007,2 35 0 0,0
11.11.2018 12:00:00 12,7 7,8 12,8 10,8 9,7 11,6 33 18 57 31 ZZW 1006,5 46 31 0,0
11.11.2018 11:00:00 12,6 7,7 12,9 10,0 9,7 11,6 35 19 53 29 ZZW 1005,9 52 44 0,0
11.11.2018 10:00:00 11,3 7,2 10,8 9,4 9,7 11,6 34 18 59 32 ZZW 1005,9 66 33 0,0
11.11.2018 09:00:00 11,1 7,3 10,6 9,0 9,7 11,6 30 16 48 26 ZZW 1005,4 69 5 0,0
11.11.2018 08:00:00 10,6 7,2 9,6 8,9 9,8 11,6 31 17 50 27 ZZW 1004,8 75 0 0,0
11.11.2018 07:00:00 10,7 7,3 9,9 9,1 9,8 11,6 29 16 47 25 ZZW 1004,0 62 0 0,1
11.11.2018 06:00:00 11,1 7,4 10,5 9,0 9,9 11,6 27 15 46 25 ZZW 1003,9 56 0 0,0
11.11.2018 05:00:00 11,2 7,3 10,4 9,0 9,9 11,6 29 16 48 26 ZZW 1003,7 47 0 0,0
11.11.2018 04:00:00 11,2 7,1 10,4 9,3 9,9 11,6 29 15 45 24 ZZW 1003,7 48 0 0,0
11.11.2018 03:00:00 11,1 7,6 10,3 9,3 10,0 11,6 26 14 43 23 ZZW 1004,0 48 0 0,0
11.11.2018 02:00:00 11,4 7,9 10,4 9,3 10,0 11,6 25 14 37 20 Z 1003,9 58 0 0,0
11.11.2018 01:00:00 11,4 8,3 10,3 9,4 10,1 11,6 25 13 41 22 Z 1003,7 75 0 0,0
11.11.2018 00:00:00 11,4 8,7 10,4 9,8 10,1 11,6 19 11 34 18 ZZW 1003,8 75 0 0,0
10.11.2018 23:00:00 11,8 8,7 11,1 10,0 10,1 11,6 24 13 40 22 ZZW 1003,7 75 0 0,0
10.11.2018 22:00:00 12,3 9,1 11,7 10,3 10,1 11,6 23 12 35 19 Z 1003,3 63 0 0,0
10.11.2018 21:00:00 12,3 9,6 11,8 10,4 10,1 11,6 24 13 46 25 ZZW 1003,0 75 0 0,0
10.11.2018 20:00:00 12,2 10,0 11,1 10,5 10,1 11,6 21 12 36 20 Z 1002,2 75 0 0,1
10.11.2018 19:00:00 12,6 9,8 12,0 10,5 10,0 11,6 21 11 36 19 ZZW 1002,8 75 0 0,0
10.11.2018 18:00:00 12,5 9,6 11,7 10,6 10,0 11,6 25 13 37 20 Z 1002,4 75 0 0,0
10.11.2018 17:00:00 12,9 9,8 12,4 11,0 9,9 11,6 23 12 38 20 ZZW 1002,5 75 0 0,0
10.11.2018 16:00:00 13,2 9,8 12,8 11,2 9,8 11,6 24 13 41 22 ZZW 1002,0 46 0 0,0
10.11.2018 15:00:00 13,2 9,8 12,8 11,1 9,7 11,6 24 13 38 21 Z 1001,9 75 0 0,0
10.11.2018 14:00:00 12,6 9,8 12,3 11,0 9,7 11,6 21 11 38 21 Z 1002,5 75 0 0,0
10.11.2018 13:00:00 12,0 9,4 11,1 10,7 9,6 11,6 27 15 45 25 ZZW 1003,0 24 0 0,2
10.11.2018 12:00:00 11,9 9,8 11,0 10,6 9,5 11,6 24 13 48 26 ZZW 1003,6 46 0 0,5
10.11.2018 11:00:00 12,3 9,6 11,5 10,5 9,4 11,6 32 17 51 27 Z 1003,3 71 0 0,0
10.11.2018 10:00:00 12,5 9,0 12,3 10,1 9,4 11,6 34 18 56 30 ZZW 1003,4 54 0 0,0
10.11.2018 09:00:00 12,2 8,9 11,7 9,7 9,3 11,6 34 18 55 30 ZZW 1002,9 72 0 0,0
10.11.2018 08:00:00 12,6 8,1 11,9 9,6 9,3 11,6 38 21 55 30 ZZW 1002,6 75 0 0,0
10.11.2018 07:00:00 12,7 8,3 11,5 9,5 9,2 11,6 30 16 50 27 Z 1002,4 53 0 0,6
10.11.2018 06:00:00 13,4 7,9 11,2 9,4 9,2 11,6 29 16 49 26 Z 1002,3 34 0 0,0
10.11.2018 05:00:00 13,5 7,8 12,6 9,2 9,2 11,6 32 17 48 26 Z 1002,7 75 0 0,0
10.11.2018 04:00:00 13,0 7,6 12,0 9,0 9,2 11,6 25 13 44 24 Z 1003,4 66 0 0,0
10.11.2018 03:00:00 12,6 7,7 11,6 8,7 9,2 11,6 19 11 39 21 Z 1004,5 70 0 0,0
10.11.2018 02:00:00 12,1 7,4 10,8 8,7 9,2 11,6 27 15 46 25 Z 1005,0 70 0 0,0
10.11.2018 01:00:00 12,2 7,9 10,9 8,7 9,2 11,6 32 17 43 23 Z 1005,8 58 0 0,0
10.11.2018 00:00:00 12,0 8,1 10,7 8,7 9,3 11,6 28 15 42 23 Z 1006,6 69 0 0,0
09.11.2018 23:00:00 11,9 8,2 10,6 8,7 9,3 11,6 28 15 42 23 Z 1007,7 63 0 0,0
09.11.2018 22:00:00 11,8 7,9 10,4 8,7 9,3 11,6 24 13 36 20 Z 1008,4 54 0 0,0
09.11.2018 21:00:00 11,9 8,0 10,4 8,9 9,4 11,6 25 14 37 20 Z 1009,1 49 0 0,0
09.11.2018 20:00:00 12,3 8,0 11,0 9,0 9,4 11,6 29 15 39 21 Z 1009,3 46 0 0,0

tt = temperatuur
td = dauwpunt
tt 5cm = temperatuur 5cm
tt -5cm = temperatuur -5cm
tt -20cm = temperatuur -20cm
tt -100cm = temperatuur -100cm
ff = windsnelheid
fx = windstoten
dd = windrichting
ppp = luchtdruk
vv = zicht
sd = Zonneschijnduur
rr = neerslag

Weerstations in de omgeving